Weather observations for the past three days for
Galliano, South Lafourche Airport
Imperial (Metric)
Date Time (cdt) Wind (mph) Vis. (mi.) Weather Sky Cond. Temperature (ºF) Relative Humidity Wind Chill (°F) Heat Index (°F) Pressure Precipitation (in)
Air Dwpt 6 hour altimeter (in) sea level (mb) 1 hr 3 hr 6 hr
Max. Min.
16 00:35 Calm 10.00 Fair CLR 76.8 73.6 90% 78 30.03 0.0
16 00:15 Calm 10.00 Fair CLR 77.5 73.8 88% 79 30.03 0.0
15 23:55 Calm 10.00 Fair CLR 77.7 73.6 87% 80 30.03 0.0
15 23:35 SE 3 10.00 Fair CLR 79.7 73.4 81% 84 30.02 0.0
15 23:15 S 5 10.00 Fair CLR 79 73.8 84% 82 30.02 0.0
15 22:55 S 3 10.00 Fair CLR 77.7 73.9 88% 80 30.02 0.0
15 22:35 Calm 10.00 Fair CLR 77.9 74.1 88% 80 30.01 0.0
15 22:15 S 3 10.00 Fair CLR 77.5 73.9 89% 79 30 0.0
15 21:55 Calm 10.00 Fair CLR 78.8 74.5 87% 82 30 0.0
15 21:35 Calm 10.00 Fair CLR 79.9 74.3 83% 84 30 0.0
15 21:15 Calm 10.00 Fair CLR 78.8 75.2 89% 82 30 0.0
15 20:55 Calm 10.00 Fair CLR 79.3 75.6 88% 84 30 0.0
15 20:35 Calm 10.00 Fair CLR 79.9 75.7 87% 85 30.01 0.0
15 20:15 Calm 10.00 Fair CLR 82.2 74.8 78% 89 30 0.0
15 19:55 SW 3 10.00 Fair CLR 83.5 74.8 75% 91 30 0.0
15 19:35 SW 5 10.00 Partly Cloudy SCT027 86 75.2 70% 95 30 0.0
15 19:15 SW 5 0.00 Partly Cloudy SCT027 86.9 74.7 67% 96 30 0.0
15 18:55 SW 6 10.00 Fair CLR 87.8 75.2 89.6 79.3 66% 98 30 0.0 0.05
15 18:35 SW 5 10.00 Fair CLR 87.1 74.7 67% 96 30.01 0.0
15 18:15 SW 6 10.00 Partly Cloudy SCT024 SCT030 SCT037 87.3 76.1 70% 98 30 0.0
15 17:55 SW 3 10.00 Partly Cloudy SCT027 SCT032 88 75.9 68% 99 30 0.0
15 17:35 S 6 10.00 Partly Cloudy SCT029 88 74.8 65% 98 30 0.0
15 17:15 S 5 10.00 Fair CLR 89.4 74.1 61% 99 29.99 0.0
15 16:55 S 6 10.00 Fair CLR 88.2 75.6 66% 99 30 0.0
15 16:35 S 5 10.00 Fair CLR 87.1 75.6 69% 97 30 0.0
15 16:15 Calm 10.00 Partly Cloudy SCT027 SCT033 87.8 75 66% 98 30.01 0.0
15 15:55 S 3 10.00 Mostly Cloudy BKN025 BKN031 88.2 75.6 66% 99 30.02 0.0 0.05
15 15:35 S 3 10.00 Partly Cloudy SCT023 SCT028 88 75.9 68% 99 30.04 0.0
15 15:15 Calm 10.00 Thunderstorm in Vicinity CLR 87.3 76.5 70% 98 30.05 0.0
15 14:55 Calm 10.00 Fair CLR 87.1 76.6 71% 98 30.06 0.0 0.03
15 14:35 Calm 10.00 Partly Cloudy SCT028 SCT036 84.9 78.1 80% 97 30.06 0.0 0.02
15 14:15 N 3 10.00 Light Rain SCT024 SCT031 BKN036 81.9 77.5 87% 90 30.07 0.0 0.01
15 13:55 Calm 2.50 Thunderstorm Rain in Vicinity BKN022 BKN035 OVC050 79.5 73.6 82% 83 30.08 0.0 0.02
15 13:35 Calm 10.00 Light Rain BKN020 OVC032 81.1 72.1 74% 86 30.09 0.0
15 13:15 W 12 10.00 Thunderstorm Light Rain SCT022 SCT032 BKN045 85.8 74.3 69% 94 30.1 0.0
15 12:55 Calm 10.00 Thunderstorm Light Rain SCT045 SCT055 86 75 87.8 77.9 70% 95 30.09 0.0
15 12:35 Calm 10.00 Thunderstorm Light Rain CLR 85.8 75.9 72% 96 30.1 0.0
15 12:15 E 3 10.00 Thunderstorm Light Rain CLR 86.9 75.9 70% 97 30.1 0.0
15 11:55 NE 3 10.00 Thunderstorm CLR 86.9 75.7 70% 97 30.1 0.0
15 11:40 Calm 10.00 Thunderstorm SCT028 87.3 76.5 70% 98 30.11 0.0
15 11:15 N 5 10.00 Thunderstorm in Vicinity BKN028 BKN055 87.1 76.3 70% 98 30.1 0.0
15 10:55 NE 6 10.00 Thunderstorm in Vicinity SCT028 SCT034 BKN055 87.8 75.7 68% 98 30.1 0.0
15 10:35 N 5 10.00 Thunderstorm in Vicinity SCT026 SCT034 BKN050 87.1 75.2 68% 97 30.11 0.0
15 10:15 N 5 10.00 Thunderstorm in Vicinity SCT026 SCT032 BKN040 87.3 75.7 69% 98 30.11 0.0
15 09:55 N 7 10.00 Partly Cloudy SCT024 SCT034 SCT040 87.8 75.6 67% 98 30.11 0.0
15 09:35 N 3 10.00 Partly Cloudy SCT037 85.5 75.4 72% 95 30.11 0.0
15 09:15 N 6 10.00 Fair CLR 87.1 74.8 67% 96 30.11 0.0
15 08:55 NW 7 10.00 Fair CLR 86.7 75.4 69% 96 30.11 0.0
15 08:35 NW 7 10.00 Thunderstorm in Vicinity CLR 85.3 75.6 73% 94 30.1 0.0
15 08:15 N 3 10.00 Fair CLR 84.7 76.1 75% 94 30.11 0.0
15 07:55 NW 3 10.00 Fair CLR 83.7 75.7 77% 92 30.1 0.0
15 07:35 NW 3 10.00 Fair CLR 82.2 75.4 80% 89 30.1 0.0
15 07:15 Calm 10.00 Fair CLR 79.2 75.6 89% 83 30.09 0.0
15 06:55 Calm 10.00 Fair CLR 77.7 74.3 80.1 76.1 89% 80 30.08 0.0
15 06:35 Calm 10.00 Fair CLR 76.5 73.2 90% 77 30.07 0.0
15 06:15 Calm 10.00 Fair CLR 76.3 72.9 89% 77 30.07 0.0
15 05:55 Calm 10.00 Fair CLR 77.5 74.5 90% 79 30.06 0.0
15 05:35 Calm 10.00 Fair CLR 76.3 73.4 91% 77 30.05 0.0
15 05:15 Calm 10.00 Fair CLR 77.4 74.3 90% 79 30.05 0.0
15 04:55 Calm 10.00 Fair CLR 79.2 75.4 88% 83 30.05 0.0
15 04:35 W 3 10.00 Fair CLR 79.2 76.1 90% 83 30.04 0.0
15 04:15 Calm 10.00 Fair CLR 77.7 74.8 91% 80 30.04 0.0
15 03:55 Calm 10.00 Fair CLR 77.9 75 91% 80 30.03 0.0
15 03:35 SW 3 10.00 Fair CLR 77.9 75 91% 80 30.04 0.0
15 03:15 Calm 10.00 Fair CLR 78.3 75.2 90% 81 30.05 0.0
15 02:55 Calm 10.00 Thunderstorm in Vicinity SCT044 79 75.4 89% 83 30.05 0.0
15 02:35 Calm 10.00 Thunderstorm in Vicinity BKN044 78.8 75.6 90% 82 30.06 0.0
15 02:15 Calm 10.00 Fair CLR 78.8 75 88% 82 30.07 0.0
15 01:55 NW 3 10.00 Fair CLR 79.7 75.6 87% 84 30.08 0.0
15 01:35 Calm 10.00 Fair CLR 80.1 75.6 86% 85 30.08 0.0
15 01:15 Calm 10.00 Fair CLR 78.8 75.4 89% 82 30.09 0.0
15 00:55 Calm 10.00 Fair CLR 78.1 75 85.1 78.1 90% 81 30.09 0.0
15 00:35 Calm 10.00 Fair CLR 79 75.4 89% 83 30.1 0.0
15 00:15 Calm 10.00 Thunderstorm in Vicinity CLR 80.8 75.6 84% 87 30.1 0.0
14 23:55 Calm 10.00 Fair CLR 80.2 75.9 87% 86 30.11 0.0
14 23:35 Calm 10.00 Fair CLR 79.2 75.9 90% 83 30.11 0.0
14 23:15 Calm 10.00 Fair CLR 79.7 75.6 87% 84 30.11 0.0
14 22:55 Calm 10.00 Fair CLR 79.5 75.4 87% 84 30.1 0.0
14 22:35 Calm 10.00 Fair CLR 81.9 75.9 82% 89 30.08 0.0
14 22:15 Calm 10.00 Fair CLR 80.8 75.6 84% 87 30.08 0.0
14 21:55 Calm 10.00 Partly Cloudy SCT050 81.5 75.4 82% 88 30.08 0.0
14 21:35 Calm 10.00 Partly Cloudy SCT050 80.6 75.7 85% 86 30.09 0.0
14 21:15 Calm 10.00 Mostly Cloudy BKN050 81 75.9 85% 87 30.09 0.0
14 20:55 Calm 10.00 Overcast OVC050 81.5 76.3 84% 89 30.09 0.0
14 20:35 Calm 10.00 Mostly Cloudy BKN050 81.1 76.1 85% 88 30.08 0.0
14 20:15 Calm 10.00 Fair CLR 82.2 76.3 82% 90 30.08 0.0
14 19:55 SW 3 10.00 Fair CLR 84.6 75 73% 93 30.07 0.0
14 19:35 Calm 10.00 Fair CLR 85.1 75 72% 94 30.07 0.0
14 19:15 SW 3 10.00 Thunderstorm in Vicinity CLR 85.1 75 72% 94 30.07 0.0
14 18:55 W 3 10.00 Fair CLR 85.1 74.3 93 84.7 70% 93 30.07 0.0
14 18:35 SW 3 10.00 Fair CLR 84.7 72.5 67% 91 30.08 0.0
14 18:15 SW 3 10.00 Fair CLR 85.1 72 65% 91 30.07 0.0
14 17:55 W 6 10.00 Fair CLR 85.1 73.4 68% 92 30.08 0.0
14 17:35 W 8 10.00 Partly Cloudy SCT024 SCT037 SCT045 85.6 74.8 70% 94 30.08 0.0
14 17:15 W 8 G 18 10.00 Overcast SCT024 BKN038 OVC075 86.5 74.7 68% 95 30.08 0.0
14 16:55 SW 7 10.00 Thunderstorm in Vicinity SCT038 BKN044 BKN050 89.8 74.7 61% 100 30.08 0.0
14 16:35 S 8 10.00 Mostly Cloudy SCT038 BKN046 BKN050 93 75.4 57% 105 30.08 0.0
14 16:15 SW 5 10.00 Thunderstorm in Vicinity SCT038 91.6 73.9 56% 101 30.08 0.0
14 15:55 SE 3 10.00 Fair CLR 91.6 73 55% 100 30.09 0.0
14 15:35 Calm 10.00 Partly Cloudy SCT040 SCT060 92.3 73.9 55% 102 30.09 0.0
14 15:15 Calm 10.00 Mostly Cloudy BKN040 BKN060 91.6 73.4 55% 101 30.1 0.0
14 14:55 Calm 10.00 Partly Cloudy SCT042 90.7 72.3 55% 98 30.1 0.0
14 14:35 Calm 10.00 Fair CLR 91.8 71.8 52% 99 30.1 0.0
14 14:15 E 3 10.00 Fair CLR 91.6 72.7 54% 100 30.12 0.0
14 13:55 E 5 10.00 Fair CLR 91.2 73.2 56% 100 30.12 0.0
14 13:35 E 3 10.00 Fair CLR 90.9 73.9 58% 100 30.13 0.0
14 13:15 NE 5 10.00 Fair CLR 91.2 74.3 58% 101 30.13 0.0
14 12:55 Calm 10.00 Fair CLR 91 71.2 91.2 78.3 52% 98 30.14 0.0
14 12:35 Calm 10.00 Fair CLR 89.8 74.7 61% 100 30.15 0.0
14 12:15 NE 5 10.00 Fair CLR 90 75.7 63% 101 30.16 0.0
14 11:55 NE 3 10.00 Fair CLR 89.2 74.7 62% 99 30.17 0.0
14 11:35 N 5 10.00 Fair CLR 89.6 74.7 62% 100 30.18 0.0
14 11:15 NE 6 10.00 Fair CLR 89.8 74.8 62% 100 30.18 0.0
14 10:55 N 7 10.00 Fair CLR 89.4 73.8 60% 98 30.18 0.0
14 10:35 N 6 10.00 Fair CLR 89.1 75 63% 99 30.17 0.0
14 10:15 NW 5 10.00 Fair CLR 88.9 73.8 61% 98 30.17 0.0
14 09:55 NW 7 10.00 Fair CLR 88.7 73.6 61% 97 30.16 0.0
14 09:35 N 8 10.00 Fair CLR 88.3 73.4 61% 97 30.17 0.0
14 09:15 N 6 10.00 Fair CLR 87.4 73.2 63% 95 30.16 0.0
14 08:55 NW 7 10.00 Fair CLR 86.4 73.4 65% 94 30.16 0.0
14 08:35 NW 6 10.00 Fair CLR 85.1 73.6 69% 92 30.16 0.0
14 08:15 NW 5 10.00 Fair CLR 83.8 73.4 71% 90 30.16 0.0
14 07:55 N 3 10.00 Fair CLR 82.6 73.9 75% 89 30.16 0.0
14 07:35 Calm 10.00 Fair CLR 81 73.8 79% 86 30.16 0.0
14 07:15 NW 3 10.00 Fair CLR 79.7 73.4 81% 84 30.15 0.0
14 06:55 Calm 10.00 Fair CLR 78.1 73.2 79.7 77.4 85% 81 30.15 0.0
14 06:35 Calm 10.00 Fair CLR 77.7 72.5 84% 80 30.15 0.0
14 06:15 N 3 10.00 Fair CLR 77.9 72.9 85% 80 30.14 0.0
14 05:55 NW 3 10.00 Fair CLR 78.4 73.8 86% 81 30.13 0.0
14 05:35 N 5 10.00 Fair CLR 78.1 74.5 89% 81 30.13 0.0
14 05:15 Calm 10.00 Fair CLR 78.6 74.7 88% 82 30.12 0.0
14 04:55 NW 3 10.00 Partly Cloudy SCT026 79.3 75.2 87% 84 30.12 0.0
14 04:35 NW 3 10.00 Partly Cloudy SCT026 79.2 75.4 88% 83 30.12 0.0
14 04:15 NW 3 10.00 Fair CLR 79.2 75.4 88% 83 30.11 0.0
14 03:55 NW 3 10.00 Fair CLR 79.3 75.4 88% 84 30.1 0.0
14 03:35 Calm 10.00 Fair CLR 78.8 75.4 89% 82 30.1 0.0
14 03:15 Calm 10.00 Fair CLR 78.1 74.8 90% 81 30.1 0.0
14 02:55 Calm 10.00 Fair CLR 78.3 75.2 90% 81 30.1 0.0
14 02:35 Calm 10.00 Fair CLR 77.9 74.7 90% 80 30.11 0.0
14 02:15 Calm 10.00 Partly Cloudy SCT025 78.4 75.2 90% 82 30.12 0.0
14 01:55 Calm 10.00 Partly Cloudy SCT025 78.8 75.4 89% 82 30.13 0.0
14 01:35 Calm 10.00 Fair CLR 78.8 75.7 90% 82 30.13 0.0
14 01:15 Calm 10.00 Fair CLR 78.8 75.6 90% 82 30.14 0.0
14 00:55 Calm 10.00 Fair CLR 79 75.9 89.1 79 90% 83 30.15 0.0
14 00:35 Calm 10.00 Fair CLR 79.7 75.7 88% 85 30.16 0.0
14 00:15 Calm 10.00 Partly Cloudy SCT026 SCT033 80.1 76.1 88% 85 30.17 0.0
13 23:55 Calm 10.00 Partly Cloudy SCT026 SCT031 79.9 76.1 88% 85 30.17 0.0
13 23:35 Calm 10.00 Partly Cloudy SCT028 SCT035 SCT042 80.8 76.3 86% 87 30.17 0.0
13 23:15 Calm 10.00 Mostly Cloudy SCT028 SCT037 BKN050 84.6 75.2 74% 93 30.17 0.0
13 22:55 W 5 10.00 Fair CLR 83.7 75.4 76% 92 30.17 0.0
13 22:35 SW 6 10.00 Partly Cloudy SCT036 84 75.4 75% 92 30.17 0.0
13 22:15 W 3 10.00 Partly Cloudy SCT034 84 75.4 75% 92 30.17 0.0
13 21:55 SW 3 10.00 Fair CLR 81.9 75.2 80% 89 30.16 0.0
13 21:35 S 3 10.00 Partly Cloudy SCT050 83.5 75.2 76% 91 30.16 0.0
13 21:15 Calm 10.00 Partly Cloudy SCT050 82.8 75.2 78% 90 30.16 0.0
13 20:55 Calm 10.00 Fair CLR 82.8 75.2 78% 90 30.16 0.0
13 20:35 S 3 10.00 Fair CLR 85.5 74.5 70% 94 30.16 0.0
13 20:15 SW 7 10.00 Fair CLR 86 73.9 67% 94 30.16 0.0
13 19:55 SW 6 10.00 Fair CLR 86.4 74.5 68% 95 30.15 0.0
13 19:35 SW 3 10.00 Fair CLR 86.9 75.6 69% 97 30.15 0.0
13 19:15 SW 7 10.00 Partly Cloudy SCT035 88.5 74.7 64% 98 30.14 0.0
13 18:35 S 7 10.00 Fair CLR 90 74.8 61% 100 30.13 0.0
13 18:15 SW 5 10.00 Fair CLR 90.5 73.9 58% 100 30.12 0.0
13 17:55 SW 7 10.00 Fair CLR 90.5 75.2 61% 101 30.12 0.0
13 17:35 S 8 10.00 Fair CLR 90.9 74.8 59% 101 30.12 0.0
13 17:15 S 5 10.00 Fair CLR 90.9 73.6 57% 100 30.12 0.0
13 16:55 SW 6 10.00 Fair CLR 92.1 72.5 53% 100 30.13 0.0
13 16:35 SW 6 10.00 Partly Cloudy SCT050 92.1 73.2 54% 101 30.13 0.0
13 16:15 SW 8 10.00 Partly Cloudy SCT045 SCT050 91 72.1 54% 99 30.13 0.0
13 15:55 S 6 10.00 Partly Cloudy SCT045 SCT050 91.9 72.1 52% 100 30.13 0.0
13 15:35 SW 6 10.00 Partly Cloudy SCT046 93.2 72 50% 101 30.14 0.0
13 15:15 S 3 10.00 Partly Cloudy SCT044 92.3 70.2 48% 98 30.15 0.0
13 14:55 SE 3 10.00 Partly Cloudy SCT044 92.1 72.7 53% 101 30.15 0.0
13 14:35 SW 5 10.00 Fair CLR 92.7 72 51% 101 30.16 0.0
13 14:15 Calm 10.00 Fair CLR 92.5 69.8 48% 98 30.17 0.0
13 13:55 S 5 10.00 Fair CLR 92.5 70.2 48% 99 30.17 0.0
13 13:35 SW 6 10.00 Fair CLR 92.3 72.7 53% 101 30.18 0.0
13 13:15 Calm 10.00 Fair CLR 91.6 72.1 53% 99 30.18 0.0
13 12:55 Calm 10.00 Fair CLR 91.6 70.9 51% 98 30.18 0.0
13 12:35 Calm 10.00 Fair CLR 91 68.5 48% 95 30.19 0.0
13 12:15 Calm 10.00 Partly Cloudy SCT039 0 0 0% 30.19 0.0
13 11:55 Calm 10.00 Fair CLR 90 69.4 51% 95 30.19 0.0
13 11:35 Calm 10.00 Fair CLR 89.1 72.5 58% 97 30.2 0.0
13 11:15 Calm 10.00 Fair CLR 89.6 72.5 57% 97 30.2 0.0
13 10:55 Calm 10.00 Fair CLR 89.1 72.5 58% 97 30.2 0.0
13 10:35 W 3 10.00 Fair CLR 88.3 73.2 61% 96 30.2 0.0
13 10:15 W 5 10.00 Fair CLR 88 73.8 63% 96 30.2 0.0
13 09:55 Calm 10.00 Fair CLR 87.6 74.8 66% 97 30.2 0.0
13 09:35 Calm 10.00 Fair CLR 87.1 75.2 68% 97 30.2 0.0
13 09:15 W 5 10.00 Fair CLR 86.5 75 69% 96 30.2 0.0
13 08:55 W 3 10.00 Fair CLR 86 75.7 72% 96 30.19 0.0
13 08:35 W 3 10.00 Fair CLR 85.1 75.6 73% 94 30.19 0.0
13 08:15 Calm 10.00 Fair CLR 84.2 76.6 78% 94 30.18 0.0
13 07:55 NW 3 10.00 Fair CLR 83.3 75.7 78% 91 30.18 0.0
13 07:35 Calm 10.00 Fair CLR 81.9 75.4 81% 89 30.17 0.0
13 07:15 Calm 10.00 Fair CLR 79.5 74.7 85% 84 30.16 0.0
13 06:55 Calm 10.00 Fair CLR 76.5 73.6 79 75.9 91% 77 30.16 0.0
13 06:35 Calm 10.00 Fair CLR 76.3 72.7 89% 77 30.15 0.0
13 06:15 Calm 10.00 Fair CLR 76.3 73 90% 77 30.15 0.0
13 05:55 Calm 10.00 Fair CLR 75.9 72.9 90% 76 30.14 0.0
13 05:35 Calm 10.00 Fair CLR 76.8 73.4 89% 78 30.13 0.0
13 05:15 Calm 10.00 Fair CLR 76.8 73.6 90% 78 30.13 0.0
13 04:55 Calm 10.00 Fair CLR 77.2 73.9 90% 79 30.12 0.0
13 04:35 Calm 10.00 Partly Cloudy SCT029 78.3 74.5 88% 81 30.12 0.0
13 04:15 Calm 10.00 Fair CLR 78.6 74.7 88% 82 30.12 0.0
13 03:55 Calm 10.00 Partly Cloudy SCT031 SCT039 SCT050 77.2 74.5 91% 79 30.12 0.0
13 03:35 Calm 10.00 Partly Cloudy SCT031 SCT039 77 74.1 91% 78 30.11 0.0
13 03:15 Calm 10.00 Fair CLR 77.2 74.5 91% 79 30.11 0.0
13 02:55 Calm 10.00 Fair CLR 76.8 73.8 90% 78 30.1 0.0
13 02:35 Calm 10.00 Fair CLR 76.6 73.9 91% 77 30.11 0.0
13 02:15 Calm 10.00 Fair CLR 77 74.1 91% 78 30.11 0.0
13 01:55 Calm 10.00 Fair CLR 77.2 74.3 91% 79 30.12 0.0
13 01:35 Calm 10.00 Fair CLR 77.4 74.3 90% 79 30.12 0.0
13 01:15 Calm 10.00 Fair CLR 77.9 74.3 89% 80 30.11 0.0
13 00:55 Calm 10.00 Fair CLR 79.2 74.8 88.2 77.9 87% 83 30.12 0.0
Date Time (cdt) Wind (mph) Vis. (mi.) Weather Sky Cond. Air Dwpt Max. Min. Relative Humidity Wind Chill (°F) Heat Index (°F) altimeter (in) sea level (mb) 1 hr 3 hr 6 hr
6 hour
Temperature (ºF) Pressure Precipitation (in)